Change the Weather History Date:

Monday, November 5, 2012

  Actual Average Record
Temperature  
Mean Temperature 30 °F -  
Max Temperature 34 °F 46 °F 70 °F (1978)
Min Temperature 23 °F 29 °F 9 °F (1966)
Degree Days  
Heating Degree Days 36    
Moisture  
Dew Point 21 °F    
Average Humidity 69    
Maximum Humidity 82    
Minimum Humidity 56    
Precipitation  
Precipitation 0.00 in - - ()
Sea Level Pressure  
Sea Level Pressure 30.26 in    
Wind  
Wind Speed 6 mph (ENE)    
Max Wind Speed 12 mph    
Max Gust Speed -    
Visibility 10 miles    
Events      
Averages and records for this station are not official NWS values.
T = Trace of Precipitation, MM = Missing Value Source: NWS Daily Summary

Daily Weather History Graph

Daily Weather History Graph

Search for Another Location

Airport or City:

Trip Planner

Search our weather history database for the weather conditions in past years. The results will help you decide how hot, cold, wet, or windy it might be!

Date:

Astronomy

Nov. 05, 2012 Rise Set
Actual Time 7:25 AM EST 5:19 PM EST
Civil Twilight 6:53 AM EST 5:51 PM EST
Nautical Twilight 6:18 AM EST 6:26 PM EST
Astronomical Twilight 5:43 AM EST 7:01 PM EST
Moon 10:57 PM EST (11/5) 12:44 PM EST (11/5)
Length of Visible Light 10h 57m
Length of Day
9h 54m
Waning Gibbous, 63% of the Moon is Illuminated
Nov 5
Waning Gibbous
Nov 6
Last Quarter
Nov 13
New
Nov 20
First Quarter
Nov 28
Full

Hourly Weather History & Observations

Time (EST) Temp. Windchill Dew Point Humidity Pressure Visibility Wind Dir Wind Speed Gust Speed Precip Events Conditions
12:54 AM 30.9 °F 22.8 °F 25.0 °F 79% 30.27 in 10.0 mi NE 9.2 mph - N/A   Overcast
1:36 AM 30.2 °F 20.8 °F 24.8 °F 80% 30.24 in 10.0 mi NNE 11.5 mph - N/A   Overcast
1:54 AM 30.0 °F 22.4 °F 25.0 °F 82% 30.27 in 10.0 mi NNE 8.1 mph - N/A   Overcast
2:13 AM 30.2 °F 21.3 °F 24.8 °F 80% 30.24 in 10.0 mi NNE 10.4 mph - N/A   Overcast
2:54 AM 30.0 °F 22.4 °F 24.1 °F 79% 30.27 in 10.0 mi NE 8.1 mph - N/A   Overcast
3:54 AM 28.9 °F 21.1 °F 21.9 °F 75% 30.27 in 10.0 mi NNE 8.1 mph - N/A   Overcast
4:54 AM 28.9 °F 22.8 °F 21.9 °F 75% 30.28 in 10.0 mi NNE 5.8 mph - N/A   Overcast
5:54 AM 28.9 °F - 21.9 °F 75% 30.29 in 10.0 mi Calm Calm - N/A   Overcast
6:54 AM 30.0 °F - 21.9 °F 72% 30.29 in 10.0 mi Calm Calm - N/A   Overcast
7:32 AM 30.2 °F 24.3 °F 21.2 °F 69% 30.26 in 10.0 mi North 5.8 mph - N/A   Overcast
7:54 AM 30.0 °F 25.2 °F 21.0 °F 69% 30.29 in 10.0 mi NNE 4.6 mph - N/A   Overcast
8:54 AM 30.9 °F 23.5 °F 19.9 °F 64% 30.30 in 10.0 mi ENE 8.1 mph - N/A   Overcast
9:08 AM 30.2 °F 23.4 °F 19.4 °F 64% 30.28 in 10.0 mi East 6.9 mph - N/A   Overcast
9:42 AM 30.2 °F 26.7 °F 19.4 °F 64% 30.27 in 10.0 mi East 3.5 mph - N/A   Overcast
9:54 AM 32.0 °F 28.7 °F 19.0 °F 59% 30.30 in 10.0 mi ENE 3.5 mph - N/A   Overcast
10:54 AM 32.0 °F 27.5 °F 19.9 °F 61% 30.31 in 10.0 mi East 4.6 mph - N/A   Overcast
11:54 AM 33.1 °F 26.9 °F 21.0 °F 61% 30.30 in 10.0 mi ESE 6.9 mph - N/A   Overcast
12:54 PM 33.1 °F 30.0 °F 21.0 °F 61% 30.27 in 10.0 mi East 3.5 mph - N/A   Overcast
1:54 PM 34.0 °F 31.0 °F 21.9 °F 61% 30.27 in 10.0 mi ESE 3.5 mph - N/A   Overcast
2:54 PM 33.1 °F - 21.0 °F 61% 30.25 in 10.0 mi Calm Calm - N/A   Overcast
3:54 PM 33.1 °F - 21.0 °F 61% 30.25 in 10.0 mi Calm Calm - N/A   Overcast
4:27 PM 33.8 °F - 19.4 °F 56% 30.21 in 10.0 mi Calm Calm - N/A   Overcast
5:54 PM 32.0 °F - 21.0 °F 64% 30.24 in 10.0 mi Calm Calm - N/A   Overcast
6:54 PM 32.0 °F 28.7 °F 19.9 °F 61% 30.24 in 10.0 mi South 3.5 mph - N/A   Overcast
7:54 PM 28.9 °F - 19.0 °F 67% 30.24 in 10.0 mi Calm Calm - N/A   Scattered Clouds
8:54 PM 25.0 °F - 18.0 °F 75% 30.23 in 10.0 mi Calm Calm - N/A   Overcast
10:54 PM 27.0 °F - 19.9 °F 75% 30.20 in 10.0 mi Calm Calm - N/A   Overcast
11:54 PM 23.0 °F - 18.0 °F 81% 30.19 in 10.0 mi Calm Calm - N/A   Scattered Clouds